Flag for U.S.A. Weather past 2 weeks in Davenport, Iowa, U.S.A.

Now
62 °F

Mostly cloudy.


Feels Like: 62 °F
Forecast: 49 / 66 °F
Wind: 21 mph from Northeast

Location: Davenport Municipal Airport

Current Time: May 30, 2015 at 2:45:12 PM

Latest Report: May 30, 2015 at 1:52 PM


Visibility: 10 mi

Pressure: 30.01 "Hg

Humidity: 80%

Dew point: 56 °F

Location of DavenportLocation

Historic Weather in Davenport — Graph

°F

Davenport temperature yesterday

Maximum temperature yesterday: 81 °F (at 3:52 PM)
Minimum temperature yesterday: 66 °F (at 3:52 AM)
Average temperature yesterday: 73 °F

Past Weeks' High & Low Weather Summary

 TemperatureHumidityPressure
High83 °F (May 28, 2:52 PM)94% (May 16, 6:01 AM)30.32 "Hg (May 16, 6:01 AM)
Low41 °F (May 21, 4:52 AM)18% (May 22, 2:52 PM)29.71 "Hg (May 25, 3:52 AM)
Average65 °F66%30.03 "Hg
* Reported May 15 12:52 PM — May 30 12:52 PM, Davenport, Weather by CustomWeather, © 2015

Note: Actual official high and low records may vary slightly from our data, if they occured in-between our weather recording intervals... More about our weather records

Advertising

Davenport weather history for previous 24 hours

 ConditionsComfort  
Time TempWeatherWind HumidityBarometerVisibility
12:52 PM
Sat, May 30
66 °FOvercast.17 mph84%30.00 "Hg10 mi
11:59 AM67 °FMostly cloudy.16 mph87%30.00 "Hg10 mi
11:03 AM68 °FLight rain. Fog.5 mph90%29.99 "Hg3 mi
10:52 AM68 °FHeavy rain. Fog.5 mph90%29.98 "Hg1 mi
9:52 AM68 °FOvercast.7 mph87%29.97 "Hg10 mi
9:03 AM68 °FMostly cloudy.5 mph84%29.97 "Hg10 mi
8:52 AM68 °FMostly cloudy.5 mph84%29.96 "Hg10 mi
7:52 AM67 °FMostly cloudy.8 mph87%29.95 "Hg10 mi
6:52 AM66 °FOvercast.8 mph87%29.95 "Hg10 mi
5:52 AM66 °FPassing clouds.9 mph90%29.94 "Hg10 mi
5:00 AM66 °FPassing clouds.9 mph90%29.93 "Hg10 mi
3:52 AM66 °FPassing clouds.7 mph87%29.91 "Hg10 mi
2:52 AM66 °FPassing clouds.8 mph87%29.93 "Hg10 mi
1:52 AM68 °FLight rain. Overcast.9 mph84%29.94 "Hg10 mi
12:52 AM68 °FOvercast.8 mph82%29.93 "Hg10 mi
11:52 PM
Fri, May 29
68 °FMostly cloudy.10 mph82%29.95 "Hg10 mi
10:52 PM71 °FMostly cloudy.14 mph73%29.94 "Hg10 mi
9:52 PM73 °FOvercast.8 mph76%29.94 "Hg10 mi
8:52 PM73 °FPartly sunny.6 mph76%29.92 "Hg10 mi
7:52 PM75 °FBroken clouds.7 mph66%29.90 "Hg10 mi
6:52 PM77 °FSunny.13 mph58%29.90 "Hg10 mi
5:52 PM78 °FPassing clouds.14 mph54%29.89 "Hg10 mi
4:52 PM80 °FSunny.18 mph54%29.89 "Hg10 mi
3:52 PM81 °FPartly sunny.18 mph58%29.90 "Hg10 mi
2:52 PM80 °FScattered clouds.15 mph60%29.91 "Hg10 mi
Weather by CustomWeather, © 2015

See weather overviewHow to use our weather pages